sat.trackr.live / text

‹ back to catalog

STARLINK-31550

NORAD 59338 · 2024-057U

PAYLOAD ACTIVE UNKNOWN

§ Identity

Operator
Country
US
Launch date
2024-03-25
Launch site
AFETR
Launch vehicle
Mass (kg)
RCS (m²)

Purposes: comms

External: N2YO · Heavens-Above · Gunter

§ Orbital elements

Epoch: 2026-09-20T00:13:58.778976Z

Period
94.27 min
Inclination
43.0024°
Eccentricity
0.0001355
Mean motion
15.27578645 rev/d
Perigee alt
482.1 km
Apogee alt
484.0 km
Semi-major
6,861.2 km
B*
4.5980e-5
RAAN
170.0166°
Arg perigee
275.1201°
Mean anomaly
84.9496°
Rev number
13,955

§ Raw data

STARLINK-315501 59338U 24057U   26263.00970809  .00001003  00000+0  45980-4 0  99912 59338  43.0024 170.0166 0001355 275.1201  84.9496 15.27578645139559

JSON: /api/v1/satellites/59338 · /tle

For live sub-satellite position, see the globe view (requires WebGL).

§ Visibility from observer

Set your observer location to see the next 7 days of passes ≥ 10°. The values pass through the URL so the page stays shareable.

No JS? Fill the form by hand. The geolocation button needs JavaScript.